RH
55 57 57 54 51 47 45 44 40 38 36 34 33 33 33 36 41 43 43 43 45 44
58 59 59 57 55 51 49 47 44 42 39 37 36 36 38 43 46 48 48 48 49 48
64 62 60 57 54 53 52 49 46 44 42 40 39 41 45 49 54 53 53 54 53 54
75 71 67 64 60 55 52 48 46 45 43 42 44 47 54 61 60 60 61 61 58 54
77 75 72 66 64 66 63 56 52 50 48 50 56 63 69 73 73 68 65 59 57 54
83 81 77 73 69 68 67 67 67 66 67 72 77 79 80 74 69 63 60 60 57 54
82 83 81 79 76 74 73 76 81 84 83 87 92 84 78 71 69 63 63 61 55 51
85 85 84 81 81 86 89 92 93 93 95 88 81 74 75 72 65 63 60 55 52 50
91 89 89 94 96 96 97 96 96 95 84 81 87 77 70 69 68 63 58 55 53 51
91 96 96 97 97 97 97 93 85 85 92 82 75 71 66 70 66 61 59 57 53 51
96 95 97 97 97 96 90 92 96 91 86 79 73 67 65 65 61 60 58 54 52 51
98 97 97 97 97 96 97 96 90 83 79 76 68 62 57 62 61 56 51 51 49 44
98 97 98 98 97 96 93 89 87 80 72 68 62 59 57 61 56 51 47 41 41 38
98 98 98 96 94 90 84 76 72 71 70 68 61 58 56 56 53 50 45 39 34 33